Location: Grasslands National Park East Block
(49.0708°N, 106.5295°W)
Time: 09:13:26
(UTC-06:00)

Vanguard 1 Rocket - Pass Details

Date: 24 September 2019
Orbit: 650 x 4226 km, 34.3° (Epoch: 13 October)

Event Time Altitude Azimuth Distance (km) Brightness Sun altitude
Rises 20:55:25 0° 262° (W) 8,025 13.2 -19.3°
Reaches altitude 10° 21:01:54 10° 257° (WSW) 6,578 12.5 -20.3°
Maximum altitude 21:18:49 41° 197° (SSW) 3,072 9.9 -22.8°
Enters shadow 21:24:14 28° 151° (SSE) 3,065 9.6 -23.5°
Drops below altitude 10° 21:28:13 10° 131° (SE) 3,733 - -24.1°
Sets 21:30:49 0° 123° (ESE) 4,374 - -24.5°
